Location: Vlissingen
(51.4500°N, 3.5830°E)
Time: 11:43:03
(UTC+01:00)

N. Korean satellite - Pass Details

Date: 05 December 2021
Orbit: 447 x 491 km, 97.3° (Epoch: 20 January)

Event Time Altitude Azimuth Distance (km) Brightness Sun altitude
Rises 05:19:53 0° 24° (NNE) 2,471 10.5 -29.1°
Reaches altitude 10° 05:22:17 10° 41° (NE) 1,589 9.6 -28.7°
Maximum altitude 05:24:58 22° 93° (E) 1,050 8.9 -28.3°
Drops below altitude 10° 05:27:38 10° 146° (SE) 1,573 9.5 -27.9°
Sets 05:29:58 0° 162° (SSE) 2,439 10.4 -27.5°
